[[{"header":{"parameterUnit":"m.s-1","parameterCategory":1,"la1":30.2991,"la2":30.254,"lo1":-89.0895,"lo2":-89.0444,"dy":0.0017,"dx":0.0017,"nx":28,"ny":28,"refTime":"2024-12-12T09:00:00:Z","depth":0,"parameterNumber":2,"parameterNumberName":"U-component_of_WINDS"},"data":[0,0,0,0,0,0,0,0,0,0,0,0,0,0,0,0,0,0,0,0,0,0,0,0,0,0,0,0,0,0,0,0,0,0,0,0,0,0,0,0,0,0,0,0,0,0,0,0,0,0,0,0,0,0,0,0,0,0,-3.5012,-3.5012,0,-3.5044,-3.5044,-3.5045,-3.4881,-3.4876,-3.4871,-3.4867,-3.4903,-3.4909,-3.4914,0,0,0,0,0,0,0,0,0,0,0,0,0,-3.481,-3.4815,-3.5012,-3.5012,-3.5012,-3.5044,-3.5044,-3.5045,-3.4882,-3.4876,-3.487,-3.4865,-3.4901,-3.4908,-3.4914,0,0,0,0,0,0,0,0,0,0,0,0,0,-3.4876,-3.4816,-3.5012,-3.4935,-3.4928,-3.5044,-3.5044,-3.5045,-3.4883,-3.4876,-3.4868,-3.4862,-3.4899,-3.4907,-3.4915,-3.5108,0,0,-3.494,-3.4943,0,0,0,0,0,0,0,0,-3.4872,-3.4883,-3.4946,-3.494,-3.4933,-3.4951,-3.4986,-3.5066,-3.4885,-3.49,-3.4867,-3.4858,-3.4925,-3.4931,-3.4952,-3.5109,-3.5111,-3.4941,-3.4946,-3.4949,-3.4951,0,0,0,0,0,0,0,-3.4868,-3.4881,-3.5024,-3.4947,-3.4939,-3.4899,-3.4901,-3.5001,-3.4952,-3.4898,-3.4886,-3.4892,-3.492,-3.4945,-3.4952,-3.5111,-3.494,-3.4948,-3.4953,-3.4956,-3.5427,-3.5435,0,0,0,0,0,0,-3.4873,-3.4878,-3.5023,-3.5025,-3.4884,-3.4909,-3.491,-3.4952,-3.4951,-3.4943,-3.4898,-3.4884,-3.4935,-3.4943,-3.4953,-3.5178,-3.4949,-3.4957,-3.4961,-3.542,-3.5429,-3.5437,0,0,0,0,0,0,-3.487,-3.4888,-3.5022,-3.4949,-3.4963,-3.492,-3.4968,-3.4957,-3.4981,-3.4951,-3.4941,-3.4932,-3.4929,-3.4941,-3.507,-3.5177,-3.496,-3.4968,-3.5411,-3.5422,-3.5433,-3.563,0,0,0,0,0,0,-3.4864,-3.4887,-3.496,-3.4951,-3.4967,-3.5139,-3.4975,-3.4963,-3.4995,-3.4978,-3.498,-3.4974,-3.4925,-3.5059,-3.5078,-3.5184,-3.4974,-3.5401,-3.5416,-3.5429,-3.5614,-3.5647,-3.5675,0,0,0,0,0,-3.4858,-3.5015,-3.4964,-3.4983,-3.5057,-3.5145,-3.5154,-3.5094,-3.5005,-3.5077,-3.5057,-3.4974,-3.5162,-3.5073,-3.5094,-3.5204,-3.5394,-3.5412,-3.5428,-3.56,-3.564,-3.5674,0,0,0,0,0,0,-3.5038,-3.5012,-3.4956,-3.5115,-3.5133,-3.5117,-3.5207,-3.5138,-3.5184,-3.5165,-3.5089,-3.5091,-3.5233,-3.5231,-3.5133,-3.539,-3.5262,-3.5285,-3.5386,-3.5424,-3.5454,-3.5452,-3.4981,0,0,0,0,0,-3.5096,-3.5169,-3.5143,-3.5285,-3.5297,-3.5251,-3.5288,-3.5239,-3.5256,-3.5263,-3.5253,-3.5273,-3.5336,-3.538,-3.5436,-3.5612,-3.5611,-3.5698,-3.5728,-3.5754,-3.5774,-3.5867,-3.5906,-3.5494,-3.5494,-3.5493,0,0,-3.5217,-3.5212,-3.5263,-3.5322,-3.533,-3.5409,-3.5259,-3.5348,-3.5406,-3.5277,-3.5398,-3.5391,-3.5408,-3.5561,-3.5628,-3.5564,-3.5887,-3.5776,-3.5796,-3.5803,-3.5889,-3.5928,-3.5963,-3.5506,-3.5503,-3.5502,0,0,-3.5477,-3.5481,-3.56,-3.5611,-3.5626,-3.5594,-3.5622,-3.5617,-3.5607,-3.5727,-3.5631,-3.5699,-3.581,-3.5826,-3.5849,-3.6115,-3.604,-3.6135,-3.6296,-3.6388,-3.642,-3.6449,-3.6544,-3.6579,-3.6156,-3.6156,-3.6156,0,-3.5626,-3.574,-3.567,-3.5766,-3.5794,-3.5679,-3.58,-3.5815,-3.5848,-3.5871,-3.5798,-3.5934,-3.5937,-3.6093,-3.6158,-3.618,-3.6211,-3.6135,-3.6421,-3.6449,-3.6474,-3.6565,-3.6601,-3.6168,-3.6166,-3.6165,-3.6164,0,-3.5922,-3.6002,-3.6097,-3.6131,-3.617,-3.6278,-3.6225,-3.6273,-3.6221,-3.6197,-3.632,-3.632,-3.6375,-3.6408,-3.6358,-3.6557,-3.6516,-3.6434,-3.6305,-3.6526,-3.661,-3.6644,-3.6184,-3.618,-3.6177,-3.6174,0,0,-3.6298,-3.6291,-3.6327,-3.6341,-3.6348,-3.6409,-3.6512,-3.6564,-3.6607,-3.6634,-3.6718,-3.6814,-3.6737,-3.6763,-3.6714,-3.6795,-3.7006,-3.6702,-3.6701,-3.6759,-3.7226,-3.7289,-3.733,-3.6956,-3.6962,-3.6967,-3.7224,0,-3.6554,-3.6728,-3.6668,-3.6845,-3.6919,-3.681,-3.69,-3.6914,-3.6895,-3.6954,-3.6932,-3.7002,-3.6895,-3.691,-3.6984,-3.6965,-3.7099,-3.6945,-3.7035,-3.7039,-3.7035,-3.7373,-3.744,-3.7683,-3.7257,-3.7262,-3.7266,0,-3.6875,-3.6914,-3.7099,-3.7093,-3.7121,-3.7203,-3.7246,-3.7304,-3.7318,-3.7298,-3.7327,-3.7261,-3.7362,-3.7232,-3.737,-3.7267,-3.73,-3.7296,-3.7304,-3.7311,-3.7167,-3.7391,-3.7759,-3.7796,-3.7317,-3.7313,-3.7309,0,-3.7132,-3.723,-3.7353,-3.7368,-3.7364,-3.7424,-3.7426,-3.7432,-3.7468,-3.7505,-3.7527,-3.7577,-3.7605,-3.7645,-3.7594,-3.7504,-3.7741,-3.7606,-3.7728,-3.7729,-3.7783,-3.7781,-3.8163,-3.7804,-3.7803,-3.7802,-3.7802,0,-3.7424,-3.7542,-3.7468,-3.7544,-3.7673,-3.7603,-3.7732,-3.7721,-3.7729,-3.7801,-3.771,-3.7781,-3.7708,-3.7772,-3.7733,-3.7854,-3.7867,-3.7854,-3.7843,-3.7863,-3.7865,-3.7885,-3.7867,-3.7812,-3.781,-3.7808,-3.7806,0,-3.7733,-3.7689,-3.7816,-3.7801,-3.78,-3.7896,-3.7884,-3.7954,-3.7927,-3.802,-3.8038,-3.7996,-3.8066,-3.8019,-3.809,-3.8064,-3.8222,-3.8187,-3.8218,-3.8208,-3.8333,-3.8322,-3.8742,-3.8794,-3.84,-3.8404,-3.8407,0,-3.7923,-3.8011,-3.8006,-3.8047,-3.8054,-3.8122,-3.8157,-3.8091,-3.8132,-3.8154,-3.8222,-3.8284,-3.8331,-3.8448,-3.8425,-3.8479,-3.8445,-3.8588,-3.8452,-3.847,-3.8448,-3.8443,-3.8452,-3.8616,-3.8621,-3.8624,-3.8627,0,-3.8265,-3.8238,-3.8292,-3.8339,-3.8383,-3.8416,-3.8442,-3.8482,-3.8415,-3.8465,-3.8535,-3.8571,-3.8643,-3.8706,-3.8751,-3.8752,-3.8681,-3.867,-3.8701,-3.8723,-3.8738,-3.8732,-3.8294,-3.8661,-3.8658,-3.8655,-3.8653,-3.8652,-3.8521,-3.8594,-3.8601,-3.8664,-3.8676,-3.8703,-3.8768,-3.8748,-3.8805,-3.8858,-3.8816,-3.89,-3.8911,-3.8964,-3.8975,-3.904,-3.8981,-3.9027,-3.9038,-3.905,-3.9068,-3.8727,-3.9048,-3.9047,-3.9046,-3.9045,-3.9044,0,-3.8858,-3.8857,-3.8916,-3.8955,-3.9004,-3.893,-3.8955,-3.9002,-3.9076,-3.9093,-3.914,-3.9221,-3.9282,-3.9263,-3.9317,-3.9373,-3.9341,-3.939,-3.9385,-3.9387,-3.9117,-3.9085,-3.9415,-3.9415,-3.9414,-3.9414,-3.9414,-3.9414,-3.904,-3.9159,-3.9134,-3.9259,-3.9256,-3.9337,-3.9358,-3.9382,-3.9395,-3.9489,-3.9539,-3.9525,-3.9528,-3.9582,-3.9635,-3.9627,-3.9652,-3.9713,-3.9695,-3.9443,-3.9406,-3.9371,-3.9341,-3.9719,-3.9719,-3.9959,-3.9961,-3.9963]},{"header":{"parameterUnit":"m.s-1","parameterCategory":1,"la1":30.2991,"la2":30.254,"lo1":-89.0895,"lo2":-89.0444,"dy":0.0017,"dx":0.0017,"nx":28,"ny":28,"refTime":"2024-12-12T09:00:00:Z","depth":0,"parameterNumber":3,"parameterNumberName":"V-component_of_WINDS"},"data":[0,0,0,0,0,0,0,0,0,0,0,0,0,0,0,0,0,0,0,0,0,0,0,0,0,0,0,0,0,0,0,0,0,0,0,0,0,0,0,0,0,0,0,0,0,0,0,0,0,0,0,0,0,0,0,0,0,0,-2.3559,-2.3559,0,-2.3558,-2.3558,-2.3558,-2.3546,-2.3546,-2.3546,-2.3546,-2.3543,-2.3543,-2.3544,0,0,0,0,0,0,0,0,0,0,0,0,0,-2.3549,-2.3549,-2.3559,-2.3559,-2.3559,-2.3558,-2.3558,-2.3558,-2.3546,-2.3546,-2.3546,-2.3545,-2.3543,-2.3543,-2.3544,0,0,0,0,0,0,0,0,0,0,0,0,0,-2.3551,-2.3549,-2.3559,-2.3553,-2.3553,-2.3558,-2.3558,-2.3558,-2.3547,-2.3546,-2.3546,-2.3545,-2.3543,-2.3543,-2.3544,-2.3554,0,0,-2.3545,-2.3545,0,0,0,0,0,0,0,0,-2.3551,-2.3551,-2.3554,-2.3554,-2.3553,-2.3552,-2.3553,-2.3557,-2.3547,-2.3549,-2.3546,-2.3545,-2.3546,-2.3546,-2.3547,-2.3554,-2.3554,-2.3545,-2.3545,-2.3545,-2.3545,0,0,0,0,0,0,0,-2.3551,-2.3551,-2.3559,-2.3554,-2.3553,-2.355,-2.355,-2.3554,-2.355,-2.3549,-2.3548,-2.3548,-2.3546,-2.3547,-2.3547,-2.3554,-2.3545,-2.3545,-2.3545,-2.3545,-2.3567,-2.3567,0,0,0,0,0,0,-2.3552,-2.3551,-2.3559,-2.3559,-2.3551,-2.355,-2.355,-2.3553,-2.355,-2.3549,-2.3548,-2.3547,-2.3546,-2.3547,-2.3547,-2.3557,-2.3545,-2.3545,-2.3545,-2.3566,-2.3567,-2.3567,0,0,0,0,0,0,-2.3552,-2.3553,-2.3559,-2.3555,-2.3555,-2.3551,-2.3554,-2.3553,-2.3554,-2.355,-2.3549,-2.355,-2.3546,-2.3546,-2.3552,-2.3557,-2.3545,-2.3546,-2.3566,-2.3566,-2.3567,-2.3579,0,0,0,0,0,0,-2.3551,-2.3553,-2.3557,-2.3555,-2.3555,-2.3565,-2.3554,-2.3553,-2.3554,-2.3553,-2.3551,-2.355,-2.3546,-2.3551,-2.3552,-2.3557,-2.3546,-2.3565,-2.3566,-2.3567,-2.3578,-2.358,-2.3581,0,0,0,0,0,-2.3551,-2.3561,-2.3557,-2.3558,-2.3561,-2.3565,-2.3565,-2.356,-2.3555,-2.3559,-2.3556,-2.355,-2.3556,-2.3552,-2.3553,-2.3558,-2.3565,-2.3566,-2.3567,-2.3577,-2.358,-2.3581,0,0,0,0,0,0,-2.3564,-2.356,-2.3557,-2.3566,-2.3566,-2.3563,-2.3568,-2.3563,-2.3564,-2.3563,-2.3556,-2.3556,-2.3562,-2.3561,-2.3556,-2.3567,-2.356,-2.3561,-2.3567,-2.357,-2.3571,-2.3571,-2.3546,0,0,0,0,0,-2.3568,-2.3572,-2.3568,-2.3577,-2.3577,-2.3572,-2.3574,-2.357,-2.3569,-2.3569,-2.3567,-2.3566,-2.3567,-2.3568,-2.357,-2.3578,-2.3576,-2.3582,-2.3583,-2.3585,-2.3585,-2.3588,-2.359,-2.357,-2.357,-2.357,0,0,-2.3576,-2.3574,-2.3577,-2.3579,-2.3579,-2.3582,-2.3572,-2.3577,-2.3578,-2.357,-2.3574,-2.3572,-2.3571,-2.3577,-2.358,-2.3576,-2.3591,-2.3586,-2.3587,-2.3587,-2.3589,-2.3591,-2.3593,-2.3571,-2.3571,-2.357,0,0,-2.3592,-2.3592,-2.3598,-2.3597,-2.3596,-2.3593,-2.3595,-2.3592,-2.359,-2.3595,-2.3588,-2.359,-2.3593,-2.3592,-2.3591,-2.3605,-2.3599,-2.3606,-2.3614,-2.3617,-2.3618,-2.3619,-2.3623,-2.3625,-2.3607,-2.3607,-2.3607,0,-2.3602,-2.3607,-2.3602,-2.3606,-2.3606,-2.3598,-2.3604,-2.3603,-2.3603,-2.3603,-2.3598,-2.3601,-2.36,-2.3605,-2.3608,-2.3609,-2.3609,-2.3606,-2.3618,-2.362,-2.3621,-2.3624,-2.3626,-2.3607,-2.3607,-2.3607,-2.3607,0,-2.3618,-2.3622,-2.3627,-2.3626,-2.3627,-2.3632,-2.3627,-2.3628,-2.3624,-2.3621,-2.3624,-2.3622,-2.3622,-2.3623,-2.3619,-2.3627,-2.3625,-2.362,-2.3612,-2.3624,-2.3626,-2.3628,-2.3608,-2.3608,-2.3608,-2.3608,0,0,-2.3643,-2.3638,-2.364,-2.3639,-2.3636,-2.3639,-2.3642,-2.3642,-2.3643,-2.3642,-2.3644,-2.3647,-2.3642,-2.3641,-2.3637,-2.3639,-2.3648,-2.3634,-2.3633,-2.3635,-2.3655,-2.3658,-2.366,-2.3645,-2.3645,-2.3645,-2.3655,0,-2.3657,-2.3664,-2.3658,-2.3666,-2.3668,-2.3659,-2.3662,-2.3661,-2.3657,-2.3658,-2.3654,-2.3655,-2.3649,-2.3649,-2.3651,-2.3647,-2.3652,-2.3646,-2.3645,-2.3645,-2.3645,-2.3662,-2.3665,-2.3675,-2.3656,-2.3656,-2.3656,0,-2.3675,-2.3675,-2.3682,-2.3677,-2.3678,-2.3681,-2.3679,-2.3681,-2.3678,-2.3675,-2.3674,-2.3669,-2.3671,-2.3664,-2.3666,-2.3662,-2.3662,-2.3659,-2.366,-2.3659,-2.3651,-2.366,-2.3678,-2.3679,-2.3658,-2.3658,-2.3658,0,-2.369,-2.3692,-2.3696,-2.3695,-2.369,-2.3692,-2.369,-2.3687,-2.3687,-2.3686,-2.3685,-2.3684,-2.3683,-2.3682,-2.3676,-2.3672,-2.3678,-2.3671,-2.3675,-2.3675,-2.3677,-2.3676,-2.3693,-2.3678,-2.3678,-2.3678,-2.3678,0,-2.3706,-2.371,-2.3702,-2.3705,-2.3709,-2.3702,-2.3706,-2.3703,-2.37,-2.3701,-2.3694,-2.3695,-2.3688,-2.3687,-2.3683,-2.3684,-2.3684,-2.3681,-2.368,-2.3681,-2.3682,-2.368,-2.3679,-2.3678,-2.3678,-2.3678,-2.3678,0,-2.3723,-2.3719,-2.3722,-2.3717,-2.3716,-2.3719,-2.3714,-2.3715,-2.3711,-2.3713,-2.3712,-2.3706,-2.3705,-2.3699,-2.3697,-2.3694,-2.3697,-2.3695,-2.3698,-2.3697,-2.37,-2.37,-2.3716,-2.3718,-2.3702,-2.3702,-2.3703,0,-2.3733,-2.3736,-2.3731,-2.3732,-2.373,-2.373,-2.373,-2.3723,-2.3723,-2.3719,-2.372,-2.3719,-2.3718,-2.3717,-2.3711,-2.3709,-2.3706,-2.3712,-2.3706,-2.3707,-2.3705,-2.3704,-2.3704,-2.3713,-2.3714,-2.3714,-2.3714,0,-2.3751,-2.3748,-2.3748,-2.3746,-2.3746,-2.3744,-2.3742,-2.3743,-2.3735,-2.3735,-2.3734,-2.3733,-2.373,-2.3728,-2.3725,-2.3722,-2.3716,-2.3716,-2.3716,-2.3718,-2.3719,-2.3717,-2.37,-2.3715,-2.3715,-2.3715,-2.3715,-2.3715,-2.3764,-2.3766,-2.3762,-2.3762,-2.3759,-2.3757,-2.3758,-2.3754,-2.3753,-2.375,-2.3746,-2.3746,-2.3741,-2.3737,-2.3734,-2.3733,-2.373,-2.3731,-2.3731,-2.3731,-2.3731,-2.372,-2.3732,-2.3732,-2.3732,-2.3732,-2.3732,0,-2.378,-2.3777,-2.3777,-2.3774,-2.3773,-2.3768,-2.3765,-2.3764,-2.3764,-2.3761,-2.3759,-2.3757,-2.3755,-2.375,-2.3747,-2.3747,-2.3744,-2.3746,-2.3746,-2.3745,-2.3735,-2.3734,-2.3748,-2.3748,-2.3748,-2.3748,-2.3748,-2.3748,-2.3789,-2.3791,-2.3787,-2.3787,-2.3784,-2.3783,-2.3782,-2.378,-2.3777,-2.3775,-2.3773,-2.377,-2.3765,-2.3762,-2.3759,-2.3757,-2.3756,-2.3759,-2.3756,-2.3747,-2.3746,-2.3744,-2.3743,-2.3759,-2.3759,-2.3766,-2.3766,-2.3766]}]]